GW4609 Weather Reports


time (UTC)temp
C
wind
direction
speed
KPH
gust
KPH
rain 1hr
cm
rain 24hr
cm
rain mn
cm
humidity
%
barometer
mb
20260504050253 2 298 0.0 0.0 0.00 0.00 0.00 86 1013.3
20260504045745 2 298 0.0 0.0 0.00 0.00 0.00 86 1013.1
20260504045244 2 298 0.0 0.0 0.00 0.00 0.00 85 1013.1
20260504044742 2 298 0.0 0.0 0.00 0.00 0.00 84 1013.2
20260504044239 2 299 0.0 1.6 0.00 0.00 0.00 83 1012.9
20260504043736 2 298 0.0 0.0 0.00 0.00 0.00 83 1013.2
20260504043233 2 299 0.0 0.0 0.00 0.00 0.00 82 1012.8
20260504042731 3 299 0.0 0.0 0.00 0.00 0.00 82 1013.0
20260504042227 3 298 0.0 0.0 0.00 0.00 0.00 81 1013.3
20260504041723 3 298 0.0 0.0 0.00 0.00 0.00 82 1013.4
20260504041220 3 298 0.0 0.0 0.00 0.00 0.00 80 1012.9
20260504040716 3 298 0.0 0.0 0.00 0.00 0.00 80 1013.1
20260504040214 3 302 0.0 0.0 0.00 0.00 0.00 80 1013.2
20260504035710 3 302 0.0 0.0 0.00 0.00 0.00 80 1013.2
20260504035207 3 302 0.0 0.0 0.00 0.00 0.00 80 1013.0
20260504034704 3 302 0.0 0.0 0.00 0.00 0.00 80 1013.2
20260504034201 4 307 0.0 0.0 0.00 0.00 0.00 80 1013.2
20260504033659 4 306 0.0 1.6 0.00 0.00 0.00 79 1013.1
20260504033156 4 305 0.0 0.0 0.00 0.00 0.00 82 1013.1
20260504032652 4 307 0.0 0.0 0.00 0.00 0.00 80 1013.2
20260504032150 5 307 0.0 0.0 0.00 0.00 0.00 79 1013.1
20260504031647 5 312 0.0 1.6 0.00 0.00 0.00 78 1012.9
20260504031143 5 294 0.0 0.0 0.00 0.00 0.00 74 1012.9
20260504030640 5 278 0.0 0.0 0.00 0.00 0.00 73 1013.1
20260504030137 5 277 0.0 1.6 0.00 0.00 0.00 74 1013.1
20260504025633 5 297 0.0 1.6 0.00 0.00 0.00 73 1013.0
20260504025130 5 256 0.0 0.0 0.00 0.00 0.00 72 1013.0
20260504024628 5 256 0.0 0.0 0.00 0.00 0.00 71 1013.1
20260504024124 5 256 0.0 0.0 0.00 0.00 0.00 72 1012.9
20260504023621 5 259 0.0 0.0 0.00 0.00 0.00 73 1013.1
20260504023117 6 277 0.0 0.0 0.00 0.00 0.00 73 1013.1
20260504022613 6 274 0.0 1.6 0.00 0.00 0.00 72 1012.9
20260504022109 6 250 0.0 1.6 0.00 0.00 0.00 73 1013.0
20260504021607 6 290 0.0 1.6 0.00 0.00 0.00 72 1013.1
20260504021104 6 296 0.0 1.6 0.00 0.00 0.00 73 1012.8
20260504020601 6 296 0.0 1.6 0.00 0.00 0.00 74 1013.0
20260504020057 6 305 0.0 1.6 0.00 0.00 0.00 75 1013.0
20260504015553 6 295 0.0 0.0 0.00 0.00 0.00 74 1013.0
20260504015049 6 294 0.0 0.0 0.00 0.00 0.00 73 1012.8
20260504014546 6 295 0.0 1.6 0.00 0.00 0.00 74 1012.7
20260504014043 6 307 0.0 1.6 0.00 0.00 0.00 69 1012.8
20260504013541 6 307 0.0 1.6 0.00 0.00 0.00 73 1012.8
20260504013037 6 291 0.0 0.0 0.00 0.00 0.00 74 1012.5
20260504012535 7 308 1.6 1.6 0.00 0.00 0.00 72 1012.3
20260504012033 7 299 0.0 1.6 0.00 0.00 0.00 72 1012.4
20260504011529 7 303 0.0 1.6 0.00 0.00 0.00 68 1012.3
20260504011025 7 299 0.0 0.0 0.00 0.00 0.00 70 1012.3
20260504010521 7 295 0.0 1.6 0.00 0.00 0.00 70 1012.4
20260504010017 7 315 0.0 1.6 0.00 0.00 0.00 71 1012.3
20260504005514 8 266 0.0 1.6 0.00 0.00 0.00 65 1012.1
20260504005012 8 243 0.0 1.6 0.00 0.00 0.00 64 1012.3
20260504004509 8 257 0.0 1.6 0.00 0.00 0.00 63 1012.4
20260504004006 8 281 0.0 1.6 0.00 0.00 0.00 62 1012.3
20260504003502 8 276 1.6 1.6 0.00 0.00 0.00 59 1012.2
20260504002959 9 270 1.6 1.6 0.00 0.00 0.00 57 1012.2
20260504002456 9 303 1.6 1.6 0.00 0.00 0.00 58 1012.0
20260504001953 10 254 0.0 1.6 0.00 0.00 0.00 53 1012.1
20260504001451 10 250 0.0 3.2 0.00 0.00 0.00 55 1012.1
20260504000947 10 291 0.0 3.2 0.00 0.00 0.00 53 1012.2
20260504000444 10 272 0.0 1.6 0.00 0.00 0.00 50 1012.0
20260503235942 11 293 0.0 1.6 0.00 0.00 0.00 52 1012.3
20260503235439 12 296 1.6 1.6 0.00 0.00 0.00 51 1011.9
20260503234936 13 323 1.6 3.2 0.00 0.00 0.00 42 1012.1
20260503234434 13 279 3.2 4.8 0.00 0.00 0.00 41 1012.0
20260503233932 14 126 3.2 4.8 0.00 0.00 0.00 33 1011.7
20260503233428 14 338 3.2 4.8 0.00 0.00 0.00 35 1012.0
20260503232925 15 282 0.0 6.4 0.00 0.00 0.00 33 1012.0
20260503232422 15 57 3.2 4.8 0.00 0.00 0.00 31 1012.0
20260503231920 15 305 0.0 9.7 0.00 0.00 0.00 32 1012.0
20260503231417 15 335 3.2 11.3 0.00 0.00 0.00 30 1012.0
20260503230913 15 306 1.6 3.2 0.00 0.00 0.00 33 1012.0
20260503230409 15 312 6.4 9.7 0.00 0.00 0.00 32 1012.0
20260503225907 16 280 6.4 9.7 0.00 0.00 0.00 30 1011.9
20260503225403 16 282 8.0 11.3 0.00 0.00 0.00 29 1012.0
20260503224859 16 357 0.0 6.4 0.00 0.00 0.00 32 1011.9
20260503224357 16 318 3.2 6.4 0.00 0.00 0.00 28 1011.9
20260503223854 17 348 1.6 4.8 0.00 0.00 0.00 28 1011.8
20260503223352 16 298 3.2 6.4 0.00 0.00 0.00 29 1011.6
20260503222847 16 233 1.6 9.7 0.00 0.00 0.00 30 1011.9
20260503222346 16 51 1.6 9.7 0.00 0.00 0.00 31 1011.9
20260503221843 17 72 1.6 9.7 0.00 0.00 0.00 30 1011.6
20260503221342 16 313 6.4 9.7 0.00 0.00 0.00 31 1011.7
20260503220837 17 24 1.6 4.8 0.00 0.00 0.00 31 1011.7
20260503220335 17 259 4.8 4.8 0.00 0.00 0.00 27 1012.0
20260503215832 17 74 1.6 3.2 0.00 0.00 0.00 31 1011.9
20260503215329 16 332 3.2 12.9 0.00 0.00 0.00 30 1012.1
20260503214827 17 312 3.2 9.7 0.00 0.00 0.00 30 1012.1
20260503214324 17 298 1.6 9.7 0.00 0.00 0.00 30 1012.1
20260503213821 16 283 1.6 12.9 0.00 0.00 0.00 28 1011.9
20260503213319 17 16 1.6 9.7 0.00 0.00 0.00 30 1012.0
20260503212815 17 330 3.2 12.9 0.00 0.00 0.00 28 1012.0
20260503212313 16 64 1.6 9.7 0.00 0.00 0.00 31 1012.0
20260503211810 17 224 3.2 14.5 0.00 0.00 0.00 30 1012.1
20260503211307 16 249 1.6 9.7 0.00 0.00 0.00 32 1012.1
20260503210807 16 7 3.2 9.7 0.00 0.00 0.00 30 1012.1
20260503210305 17 357 9.7 16.1 0.00 0.00 0.00 29 1012.2
20260503205759 17 50 1.6 14.5 0.00 0.00 0.00 30 1012.2
20260503205256 17 318 6.4 9.7 0.00 0.00 0.00 30 1012.1
20260503204753 16 256 6.4 11.3 0.00 0.00 0.00 28 1012.1
20260503204251 16 329 4.8 4.8 0.00 0.00 0.00 29 1012.1
20260503203748 16 321 1.6 6.4 0.00 0.00 0.00 31 1012.2
20260503203245 16 339 3.2 12.9 0.00 0.00 0.00 29 1012.4
20260503202742 16 317 4.8 11.3 0.00 0.00 0.00 32 1012.6
20260503202240 15 324 3.2 11.3 0.00 0.00 0.00 32 1012.3
20260503201737 16 347 4.8 16.1 0.00 0.00 0.00 29 1012.5
20260503201235 16 314 6.4 16.1 0.00 0.00 0.00 31 1012.4
20260503200731 16 232 4.8 9.7 0.00 0.00 0.00 34 1012.4
20260503200228 16 55 3.2 9.7 0.00 0.00 0.00 32 1012.7
20260503195724 16 322 8.0 20.9 0.00 0.00 0.00 31 1012.8
20260503195221 16 335 4.8 6.4 0.00 0.00 0.00 34 1012.7
20260503194719 16 319 1.6 14.5 0.00 0.00 0.00 31 1013.1
20260503194215 16 317 3.2 12.9 0.00 0.00 0.00 31 1013.0
20260503193711 16 60 4.8 11.3 0.00 0.00 0.00 34 1012.9
20260503193207 16 356 3.2 11.3 0.00 0.00 0.00 32 1012.9
20260503192703 16 341 6.4 14.5 0.00 0.00 0.00 32 1013.3
20260503192158 16 61 6.4 9.7 0.00 0.00 0.00 33 1013.1
20260503191655 15 130 3.2 22.5 0.00 0.00 0.00 31 1013.2
20260503191152 16 268 9.7 16.1 0.00 0.00 0.00 31 1013.3
20260503190649 15 308 6.4 6.4 0.00 0.00 0.00 32 1013.2
20260503190146 15 291 6.4 14.5 0.00 0.00 0.00 31 1013.3
20260503185642 15 150 0.0 3.2 0.00 0.00 0.00 35 1013.5
20260503185138 15 316 3.2 11.3 0.00 0.00 0.00 34 1013.5
20260503184633 15 162 4.8 11.3 0.00 0.00 0.00 36 1013.6
20260503184130 15 84 4.8 9.7 0.00 0.00 0.00 34 1013.8
20260503183626 16 82 6.4 9.7 0.00 0.00 0.00 34 1013.5
20260503183124 15 298 4.8 14.5 0.00 0.00 0.00 31 1013.8
20260503182622 15 340 6.4 11.3 0.00 0.00 0.00 32 1013.5
20260503182120 15 70 8.0 14.5 0.00 0.00 0.00 31 1013.8
20260503181616 15 341 9.7 14.5 0.00 0.00 0.00 32 1013.7
20260503181113 15 310 1.6 12.9 0.00 0.00 0.00 39 1013.7
20260503180610 15 118 8.0 16.1 0.00 0.00 0.00 33 1014.0
20260503180108 14 284 14.5 25.7 0.00 0.00 0.00 36 1013.9
20260503175604 15 55 3.2 6.4 0.00 0.00 0.00 36 1014.1
20260503175102 14 34 3.2 4.8 0.00 0.00 0.00 38 1014.0
20260503174559 15 83 4.8 14.5 0.00 0.00 0.00 35 1014.2
20260503174055 15 291 3.2 6.4 0.00 0.00 0.00 37 1014.0
20260503173550 14 330 8.0 12.9 0.00 0.00 0.00 33 1014.1
20260503173047 14 57 3.2 14.5 0.00 0.00 0.00 36 1014.4
20260503172544 14 83 3.2 12.9 0.00 0.00 0.00 37 1014.2
20260503172041 13 171 3.2 11.3 0.00 0.00 0.00 33 1014.5
20260503171538 13 78 3.2 11.3 0.00 0.00 0.00 35 1014.2
20260503171035 13 280 11.3 20.9 0.00 0.00 0.00 37 1014.6
20260503170531 14 275 1.6 14.5 0.00 0.00 0.00 32 1014.4
20260503150924 10 329 8.0 16.1 0.00 0.00 0.00 41 1016.0
20260503150421 10 328 6.4 20.9 0.00 0.00 0.00 42 1015.9
20260503131314 8 301 6.4 12.9 0.00 0.00 0.00 56 1016.0
20260503130811 7 56 6.4 11.3 0.00 0.00 0.00 56 1015.9
20260503130309 7 98 6.4 12.9 0.00 0.00 0.00 57 1015.9
20260503110702 0 305 0.0 0.0 0.00 0.00 0.00 96 1015.2
20260503110159 0 313 0.0 0.0 0.00 0.00 0.00 96 1015.3
20260503100126 0 303 0.0 1.6 0.00 0.00 0.00 94 1014.7
20260503081515 2 305 0.0 0.0 0.00 0.00 0.00 89 1013.8
20260503081013 3 306 0.0 1.6 0.00 0.00 0.00 88 1013.9
20260503080509 3 301 0.0 1.6 0.00 0.00 0.00 87 1013.8